FENGYUN 1C DEB, 30056

Orbit data source: Space-Track

FENGYUN 1C DEB, 30056 is space debris in SSO originally from a launch on Mon, 10 May 1999 UTC launched from the Taiyaun Space Center, China (TSC). Fengyun 1C debris stems from the Chinese weather satellite Fengyun-1C, which was intentionally destroyed by a Chinese anti-satellite missile in 2007. This event dramatically increased the amount of space debris, with thousands of trackable fragments posing hazards to satellites and human spaceflight. The Fengyun 1C debris cloud has become a focal point in discussions about space sustainability and the need for international regulations to prevent the creation of new debris.

Loading next visibility...
Identifier
30056, 1999-025PH
Orbit
SSO
Country
Flag of CNCN / PRC
Related business
Manufacturer
Unknown
Mission
Spacecraft
Bus & Motor
Unknown
Mass
Unknown
Launch date (UTC)
1999-05-10 (27 years ago)
Launch vehicle
Unknown
Launch site
Taiyaun Space Center, China (TSC)
Object type
Payload
Rocket body
Debris
Shape & HBR
Unknown shape, 0.1 m
Radar Cross Section
Small (<0.1 m²)

Expand to show TLE details & history
Last TLE update: 20 hours ago

TLE from 20 hours ago
0 FENGYUN 1C DEB
1 30056U 99025PH  26145.42882653  .00002325  00000-0  17900-2 0  9996
2 30056  98.3367 315.4847 0299456 128.0232 234.8359 13.74786397962249
Epoch: 2026-05-25T10:17Z
TLE epoch observation values (Epoch: 2026-05-25T10:17:30.612Z)
Latitude
-0.00007°
Longitude
-81.90959°
Altitude
1,116.573 km
Speed
7.229 km/s
True Right ascension
21h 01m 56s
True Declination
0° 00' 00"
Sunlit
Object was in daylight at epoch
Visualization orbit readout
Latitude
Unknown
Longitude
Unknown
Altitude
Unknown
Speed
Unknown
Apparent Right ascension
Unknown
Apparent Declination
Unknown
Sunlit
N/A
Visualization observer readout
Local Sidereal Time
15:39:27
Azimuth
Unknown
Elevation
Unknown
Doppler factor
Unknown
Orbital elements
Apogee altitude
1,199.969 km
Perigee altitude
759.303 km
Semi-major axis
7,357.773 km
Eccentricity
0.02995
Inclination
98.3367°
RAAN
315.4847°
Arg. of periapsis
128.0232°
True anomaly
232.09091°
Mean anomaly
234.8359°
Eccentric anomaly
233.45744°
Mean motion
3.43893 °/min
Orbital period
104.68 mins
BSTAR
0.00179
Loading maneuver chart data...
Computing Atmospheric mass density...
Loading historical data...
Loading historical data...
Loading historical data...
Loading historical data...
Loading historical data...
Loading historical data...
Loading historical data...

Documentation

Showing up to 5 results
|